Weather History for Charlevoix, MI

Change the Weather History Date:

Saturday, July 28, 2012

  Actual Average Record
Temperature  
Mean Temperature 65 °F -  
Max Temperature 74 °F 80 °F 84 °F (2006)
Min Temperature 56 °F 62 °F 51 °F (2003)
Growing Degree Days 15 (Base 50)    
Moisture  
Dew Point 59 °F    
Average Humidity 80    
Maximum Humidity 97    
Minimum Humidity 58    
Precipitation  
Precipitation 0.00 in - - ()
Sea Level Pressure  
Sea Level Pressure 30.11 in    
Wind  
Wind Speed 2 mph (NW)    
Max Wind Speed 10 mph    
Max Gust Speed -    
Visibility 10 miles    
Events      
Averages and records for this station are not official NWS values.
T = Trace of Precipitation, MM = Missing Value Source: NWS Daily Summary

Daily Weather History Graph

Daily Weather History Graph

Search for Another Location

Airport:

Trip Planner

Search our weather history database for the weather conditions in past years. The results will help you decide how hot, cold, wet, or windy it might be!

Date:

Astronomy

Jul. 28, 2012 Rise Set
Actual Time 6:21 AM EDT 9:12 PM EDT
Civil Twilight 5:47 AM EDT 9:47 PM EDT
Nautical Twilight 5:03 AM EDT 10:30 PM EDT
Astronomical Twilight 4:11 AM EDT 11:22 PM EDT
Moon 5:19 PM EDT (7/28) 1:38 AM EDT (7/28)
Length of Visible Light 16h 00m
Length of Day
14h 51m
Waxing Gibbous, 75% of the Moon is Illuminated
Jul 28
Waxing Gibbous
Aug 1
Full
Aug 9
Last Quarter
Aug 17
New
Aug 24
First Quarter

Hourly Weather History & Observations

Time (EDT) Temp. Dew Point Humidity Pressure Visibility Wind Dir Wind Speed Gust Speed Precip Events Conditions
12:14 AM 61.0 °F 59.7 °F 96% 30.04 in 10.0 mi Calm Calm - N/A   Clear
12:34 AM 61.0 °F 59.4 °F 94% 30.04 in 10.0 mi Calm Calm - N/A   Clear
12:54 AM 59.9 °F 58.3 °F 94% 30.05 in 10.0 mi Calm Calm - N/A   Clear
1:14 AM 59.2 °F 58.1 °F 96% 30.05 in 10.0 mi Calm Calm - N/A   Clear
1:35 AM 59.0 °F 57.7 °F 96% 30.05 in 10.0 mi Calm Calm - N/A   Clear
1:54 AM 58.5 °F 57.4 °F 96% 30.06 in 10.0 mi Calm Calm - N/A   Clear
2:14 AM 58.1 °F 57.2 °F 97% 30.06 in 10.0 mi Calm Calm - N/A   Clear
2:34 AM 58.3 °F 57.4 °F 97% 30.06 in 10.0 mi Calm Calm - N/A   Clear
2:54 AM 57.7 °F 56.8 °F 97% 30.06 in 7.0 mi Calm Calm - N/A   Clear
3:15 AM 57.2 °F 56.3 °F 97% 30.07 in 7.0 mi Calm Calm - N/A   Clear
3:34 AM 57.4 °F 56.5 °F 97% 30.07 in 7.0 mi Calm Calm - N/A   Clear
3:54 AM 57.4 °F 56.7 °F 97% 30.08 in 7.0 mi Calm Calm - N/A   Clear
4:14 AM 57.7 °F 56.7 °F 96% 30.08 in 10.0 mi Calm Calm - N/A   Scattered Clouds
4:34 AM 57.7 °F 56.7 °F 96% 30.08 in 10.0 mi Calm Calm - N/A   Scattered Clouds
4:54 AM 57.9 °F 57.0 °F 97% 30.08 in 7.0 mi Calm Calm - N/A   Scattered Clouds
5:14 AM 56.7 °F 55.8 °F 97% 30.09 in 5.0 mi Calm Calm - N/A   Scattered Clouds
5:34 AM 58.1 °F 57.2 °F 97% 30.09 in 10.0 mi Calm Calm - N/A   Clear
5:54 AM 58.1 °F 57.4 °F 97% 30.10 in 10.0 mi Calm Calm - N/A   Clear
6:14 AM 58.1 °F 57.2 °F 97% 30.10 in 5.0 mi Calm Calm - N/A   Clear
6:34 AM 58.5 °F 57.7 °F 97% 30.11 in 10.0 mi Calm Calm - N/A   Clear
6:54 AM 58.5 °F 57.7 °F 97% 30.11 in 10.0 mi SE 3.5 mph - N/A   Clear
7:14 AM 59.4 °F 58.5 °F 97% 30.12 in 10.0 mi Calm Calm - N/A   Scattered Clouds
7:35 AM 61.0 °F 59.9 °F 96% 30.12 in 10.0 mi Calm Calm - N/A   Clear
7:54 AM 62.2 °F 60.6 °F 94% 30.13 in 10.0 mi Calm Calm - N/A   Clear
8:34 AM 64.6 °F 60.6 °F 87% 30.13 in 10.0 mi Calm Calm - N/A   Clear
8:54 AM 66.4 °F 60.1 °F 80% 30.14 in 10.0 mi Calm Calm - N/A   Clear
9:15 AM 68.4 °F 60.1 °F 75% 30.14 in 10.0 mi Calm Calm - N/A   Clear
9:34 AM 69.8 °F 58.3 °F 67% 30.14 in 10.0 mi North 3.5 mph - N/A   Clear
9:54 AM 69.6 °F 58.5 °F 68% 30.14 in 10.0 mi NNW 3.5 mph - N/A   Clear
10:15 AM 70.0 °F 59.7 °F 70% 30.14 in 10.0 mi NNW 4.6 mph - N/A   Clear
10:34 AM 70.9 °F 59.9 °F 68% 30.14 in 10.0 mi NNW 4.6 mph - N/A   Clear
10:54 AM 71.2 °F 59.4 °F 66% 30.14 in 10.0 mi NNW 4.6 mph - N/A   Clear
11:15 AM 71.2 °F 58.6 °F 64% 30.15 in 10.0 mi NNW 3.5 mph - N/A   Clear
11:34 AM 72.7 °F 60.3 °F 65% 30.15 in 10.0 mi WNW 5.8 mph - N/A   Clear
11:54 AM 73.4 °F 60.1 °F 63% 30.15 in 10.0 mi WNW 5.8 mph - N/A   Clear
12:15 PM 74.3 °F 60.1 °F 61% 30.15 in 10.0 mi WNW 6.9 mph - N/A   Clear
12:34 PM 73.2 °F 61.7 °F 67% 30.15 in 10.0 mi NNW 9.2 mph - N/A   Clear
12:54 PM 72.5 °F 61.5 °F 68% 30.15 in 10.0 mi NW 8.1 mph - N/A   Clear
1:15 PM 72.9 °F 62.8 °F 71% 30.15 in 10.0 mi NNW 10.4 mph - N/A   Clear
1:34 PM 72.7 °F 62.6 °F 71% 30.15 in 10.0 mi NW 8.1 mph - N/A   Clear
1:54 PM 72.7 °F 59.9 °F 64% 30.15 in 10.0 mi NW 8.1 mph - N/A   Clear
2:14 PM 72.5 °F 59.4 °F 63% 30.15 in 10.0 mi NW 8.1 mph - N/A   Clear
2:34 PM 73.6 °F 61.5 °F 66% 30.15 in 10.0 mi WNW 10.4 mph - N/A   Clear
2:55 PM 72.9 °F 61.7 °F 68% 30.14 in 10.0 mi NNW 9.2 mph - N/A   Clear
3:14 PM 72.9 °F 61.2 °F 67% 30.14 in 10.0 mi WNW 9.2 mph - N/A   Clear
3:34 PM 73.6 °F 60.1 °F 63% 30.14 in 10.0 mi WNW 10.4 mph - N/A   Clear
3:55 PM 73.9 °F 60.6 °F 63% 30.14 in 10.0 mi NW 9.2 mph - N/A   Clear
4:14 PM 73.9 °F 60.1 °F 62% 30.13 in 10.0 mi WNW 8.1 mph - N/A   Clear
4:34 PM 73.9 °F 60.4 °F 63% 30.13 in 10.0 mi WNW 6.9 mph - N/A   Clear
4:54 PM 74.5 °F 60.1 °F 61% 30.13 in 10.0 mi NW 9.2 mph - N/A   Clear
5:14 PM 74.1 °F 60.1 °F 61% 30.12 in 10.0 mi NW 8.1 mph - N/A   Clear
5:35 PM 73.8 °F 59.4 °F 61% 30.12 in 10.0 mi NNW 6.9 mph - N/A   Clear
5:54 PM 74.1 °F 58.5 °F 58% 30.12 in 10.0 mi NW 6.9 mph - N/A   Clear
6:14 PM 74.1 °F 60.3 °F 62% 30.12 in 10.0 mi NW 6.9 mph - N/A   Clear
6:54 PM 73.6 °F 58.3 °F 59% 30.12 in 10.0 mi West 5.8 mph - N/A   Clear
7:14 PM 72.9 °F 60.6 °F 65% 30.11 in 10.0 mi WNW 5.8 mph - N/A   Clear
7:54 PM 72.5 °F 59.4 °F 63% 30.12 in 10.0 mi West 5.8 mph - N/A   Clear
8:14 PM 71.6 °F 59.4 °F 65% 30.11 in 10.0 mi West 4.6 mph - N/A   Clear
8:34 PM 70.3 °F 59.4 °F 68% 30.10 in 10.0 mi Calm Calm - N/A   Clear
8:54 PM 68.4 °F 60.3 °F 75% 30.11 in 10.0 mi Calm Calm - N/A   Clear
9:14 PM 68.2 °F 59.7 °F 74% 30.11 in 10.0 mi Calm Calm - N/A   Clear
9:34 PM 65.1 °F 60.1 °F 84% 30.11 in 10.0 mi Calm Calm - N/A   Clear
9:54 PM 63.5 °F 60.4 °F 90% 30.11 in 10.0 mi Calm Calm - N/A   Clear
10:15 PM 62.8 °F 59.9 °F 90% 30.11 in 10.0 mi Calm Calm - N/A   Clear
10:34 PM 62.4 °F 59.9 °F 91% 30.11 in 10.0 mi Calm Calm - N/A   Clear
10:54 PM 60.8 °F 59.2 °F 94% 30.11 in 7.0 mi Calm Calm - N/A   Clear
11:34 PM 60.3 °F 58.8 °F 95% 30.12 in 7.0 mi Calm Calm - N/A   Clear
11:54 PM 59.9 °F 58.1 °F 94% 30.12 in 10.0 mi Calm Calm - N/A   Clear